Regional Weather Roundup
Issued by NWS

Home | Current Version | Previous Version | Graphics & Text | Print | Product List | Glossary Off
Versions: 1 2 3 4 5 6 7 8 9 10 11 12 13 14 15 16 17 18 19 20 21 22 23 24 25 26 27 28 29 30 31 32 33 34 35 36 37 38 39 40 41 42 43 44 45 46 47 48 49 50

000
ASUS43 KMKX 271600
RWRWI

WISCONSIN REGIONAL WEATHER ROUNDUP
NATIONAL WEATHER SERVICE MILWAUKEE/SULLIVAN WI
1000 AM CST SAT DEC 27 2014

NOTE: "FAIR" INDICATES FEW OR NO CLOUDS BELOW 12,000 FEET WITH NO
SIGNIFICANT WEATHER AND/OR OBSTRUCTIONS TO VISIBILITY.

WIZ001-002-006>008-014>016-023>028-271700-
NORTHWEST WISCONSIN

CITY           SKY/WX    TMP DP  RH WIND       PRES   REMARKS
SUPERIOR ARPT  CLOUDY    22  16  75 N9        30.04S WCI  12
ASHLAND        CLOUDY    26  22  84 NW12      29.99S WCI  16
HAYWARD        CLOUDY    23  19  85 VRB6      29.97R WCI  16
SIREN          CLOUDY    21  17  83 NW9       30.03S WCI  11
CUMBERLAND     PTSUNNY   23  19  86 NW17      29.97S WCI   9
RICE LAKE      PTSUNNY   24  19  82 NW12      29.99R WCI  13
CHETEK         CLOUDY    25  22  88 NW8G17    29.97R FOG     WCI  16
LADYSMITH      LGT SNOW  28  25  91 NW14      29.94R WCI  17
EAU CLAIRE     LGT SNOW  27  21  80 NW12      29.95R WCI  16
MENOMONIE      LGT SNOW  27  22  84 NW13      29.99R WCI  16
NEW RICHMOND   CLOUDY    23  21  91 NW12      30.02S WCI  12
OSCEOLA        CLOUDY    23  22  96 NW10      30.06S WCI  12
$$

WIZ003>005-009-010-017-018-271700-
NORTH CENTRAL WISCONSIN

CITY           SKY/WX    TMP DP  RH WIND       PRES   REMARKS
MANITOWISH WTR LGT SNOW  27  27 100 N6        29.86F VSB 1   WCI  21
ARBOR VITAE      N/A     31  30  93 N9        29.85S WCI  23
WOODRUFF         N/A     31  30  93 N9        29.85S WCI  23
RHINELANDER    SNOW      28  26  92 N8        29.83R VSB 1/4 WCI  20
EAGLE RIVER    LGT SNOW  28  28  98 N7        29.83S VSB 3/4 WCI  21
LAND O LAKES   LGT SNOW  29  27  94 N9        29.84F WCI  20
PHILLIPS       LGT SNOW  28  26  94 N7        29.88R VSB 3/4 WCI  21
TOMAHAWK       SNOW      29  27  94 N5        29.84S VSB 1/2 WCI  24
MEDFORD        LGT SNOW  29  26  91 N12       29.84R WCI  19
MERRILL        LGT SNOW  30  30  99 N5        29.83R VSB 3/4 WCI  25
$$

WIZ029-030-035-036-043>047-271700-
CENTRAL WISCONSIN

CITY           SKY/WX    TMP DP  RH WIND       PRES   REMARKS
WAUSAU         LGT SNOW  32  30  92 NW6       29.82R VSB 1   WCI  26
MOSINEE        LGT SNOW  32  32 100 NW6       29.83R VSB 1   WCI  26
MARSHFIELD     LGT SNOW  31  29  92 N14       29.83S FOG     WCI  21
STEVENS POINT  MIX PCPN  31  31 100 CALM      29.83R
WAUPACA        CLOUDY    36  35  96 SW3       29.84R FOG
WAUTOMA        NOT AVBL
WISC RAPIDS    CLOUDY    33  31  92 W10       29.84R FOG     WCI  25
CAMP DOUGLAS   CLOUDY    32  32 100 W17G23    29.88R WCI  21
$$

WIZ011>013-019>022-031-037>040-048>050-271700-
NORTHEAST WISCONSIN

CITY           SKY/WX    TMP DP  RH WIND       PRES   REMARKS
ANTIGO         LGT SNOW  30  30  99 NE7       29.79F WCI  23
SHAWANO        LGT SNOW  34  33  96 CALM      29.83R
OCONTO         CLOUDY    33  33 100 N9        29.80S WCI  26
STURGEON BAY   CLOUDY    37  34  87 NW10      29.80R WCI  30
GREEN BAY      CLOUDY    35  35 100 W6        29.82R WCI  30
MANITOWOC      LGT RAIN  43  43 100 SW12      29.81R FOG
APPLETON       LGT RAIN  36  36 100 W9        29.83R VSB 3/4 WCI  29
CLINTONVILLE   LGT SNOW  32  32 100 CALM      29.83R
OSHKOSH        CLOUDY    41  38  89 W16G24    29.83R FOG
$$

WIZ032>034-041-042-053>061-271700-
SOUTHWEST WISCONSIN

CITY           SKY/WX    TMP DP  RH WIND       PRES   REMARKS
LA CROSSE      CLOUDY    32  28  85 NW15      29.98R WCI  22
SPARTA         CLOUDY    32  31  98 W12G17    29.92R FOG     WCI  23
VIROQUA        CLOUDY    31  31 100 W12       29.92R WCI  21
BOSCOBEL       CLOUDY    36  31  82 W17G25    29.98R WCI  26
PRAIRIE DU CHI CLOUDY    33  30  88 W10       29.99R WCI  25
PLATTEVILLE    CLOUDY    34  32  91 W17G25    29.98R WCI  24
$$

WIZ056-057-062-063-064-067-068-271700-
SOUTH CENTRAL WISCONSIN

CITY           SKY/WX    TMP DP  RH WIND       PRES   REMARKS
REEDSBURG      CLOUDY    36  34  92 W12G18    29.87S WCI  28
BARABOO/DELLS  CLOUDY    36  35  94 W12G18    29.86R WCI  28
LONE ROCK      NOT AVBL
MINERAL POINT  CLOUDY    36  32  87 W21G26    29.91F WCI  24
MADISON        CLOUDY    38  34  85 SW9G22    29.90R WCI  31
MIDDLETON      CLOUDY    39  36  89 W25       29.89R WCI  28
WATERTOWN      CLOUDY    45  45  99 SW13G23   29.86R
MONROE         CLOUDY    34  32  93 SW26      29.93R WCI  21
JANESVILLE     CLOUDY    45  41  87 SW21G30   29.92R
$$

WIZ051-052-058>065-066-070>072-271700-
SOUTHEAST WISCONSIN

CITY           SKY/WX    TMP DP  RH WIND       PRES   REMARKS
MILWAUKEE      CLOUDY    49  45  86 SW20G29   29.88R
WAUKESHA       CLOUDY    45  45 100 S12G18    29.87R
MILWAUKEE/TIMM CLOUDY    46  43  87 SW18G24   29.87R
RACINE         CLOUDY    50  45  83 SW16G30   29.91R
BURLINGTON     CLOUDY    47  45  94 SW25G32   29.90R
KENOSHA        CLOUDY    49  46  90 SW17G26   29.90R
FOND DU LAC    CLOUDY    44  39  82 W17G26    29.83R
SHEBOYGAN      CLOUDY    46  45  96 SW13      29.82R
WEST BEND      HVY RAIN  46  43  87 SW14G24   29.84R
JUNEAU         CLOUDY    44  42  91 SW21      29.87R
$$

LSZ147-162-271700-
LAKE SUPERIOR

STATION/POSITION TIME  TEMP    WIND        PRES    WAVE
                       AIR SEA DIR/SP/G            HT/PER
                 (UTC) (F)     (DEG/KT/KT) (MB)    (FT/S)
DEVILS ISLAND    1500   25     340/ 16/ 19 1017.0F
PORT WING        1500   26     310/  9/ 12 1016.6F
SAXON HARBOR     1500   30      20/ 14/ 16 1014.9F
$$

LMZ867-665-643>646-271700-
LAKE MICHIGAN

STATION/POSITION TIME  TEMP    WIND        PRES    WAVE
                       AIR SEA DIR/SP/G            HT/PER
                 (UTC) (F)     (DEG/KT/KT) (MB)    (FT/S)
CHAMBERS ISLAND  1500   34      30/  9/ 15 1009.5F
NORTHPORT PIER   1520   35      70/ 13/ 20 1008.5F
SISTER BAY       1413          100/  8/ 17   N/A
ALGOMA LAKESHORE 1500          230/ 14/ 16   N/A
KEWAUNEE LAKESHO 1500   39     190/ 13/ 16 1007.9F
SHEBOYGAN LAKESH 1500   41 39  180/ 18/ 19 1010.2F
PORT WASHINGTON  1500   47     200/  8/ 12 1010.8
MILWAUKEE LAKESH 1500   47     210/ 15/ 19   N/A
KENOSHA   LAKESH 1500   49     200/ 11/ 20 1011.9F
$$

TC  - TEMPERATURE IN CELSIUS
VSB - VISIBILITY IN STATUTE MILES
WCI - WIND CHILL INDEX
HX  - HEAT INDEX



USA.gov is the U.S. government's official web portal to all federal, state and local government web resources and services.